Miscellaneous Local Product
Issued by NWS Hastings, NE

Home | Current Version | Previous Version | Graphics & Text | Print | Product List | Glossary On
Versions: 1 2 3 4 5 6 7 8 9 10 11 12 13 14 15 16 17 18 19 20 21 22 23 24 25 26 27 28 29 30 31 32 33 34 35 36 37 38 39 40 41 42 43 44 45 46 47 48 49 50
698
AXUS43 KGID 270802
MISGRI

GID CWA HOURLY WEATHER ROUNDUP
NATIONAL WEATHER SERVICE HASTINGS NE
300 AM CDT FRI MAY 27 2016

NOTE: "FAIR" INDICATES FEW OR NO CLOUDS BELOW 12,000 FEET WITH NO
SIGNIFICANT WEATHER AND/OR OBSTRUCTIONS TO VISIBILITY.

...SOUTH CENTRAL NEBRASKA...

CITY           SKY/WX    TMP DP  RH WIND       PRES   REMARKS
GRAND ISLAND   CLOUDY    59  53  80 S21G32    29.71F
HASTINGS       CLOUDY    58  55  90 S8        29.73S
KEARNEY        CLOUDY    57  54  88 SE16      29.76S
ORD            LGT RAIN  59  56  89 NE26G33   29.66F
YORK           CLOUDY    63  55  77 E6        29.72F
AURORA         LGT RAIN  60  54  79 E3G14     29.69F
LEXINGTON      CLOUDY    58  56  93 E8        29.76R
HOLDREGE       CLOUDY    57  55  92 SE15G21   29.76R
HEBRON         CLOUDY    60  59  97 E16G29    29.71F

...NEBRASKA PANHANDLE...

CITY           SKY/WX    TMP DP  RH WIND       PRES   REMARKS
CHADRON        CLOUDY    47  45  93 CALM      29.85S
ALLIANCE       CLOUDY    51  47  86 N9        29.81S
SCOTTSBLUFF    CLOUDY    50  43  77 N7        29.84F
SIDNEY         LGT RAIN  50  47  89 NW8       29.81F

...WESTERN AND NORTH CENTRAL NEBRASKA...

CITY           SKY/WX    TMP DP  RH WIND       PRES   REMARKS
VALENTINE      LGT RAIN  56  52  86 NE13      29.80F
AINSWORTH      LGT RAIN  55  53  91 NW5       29.81F
ONEILL         CLOUDY    61  58  90 S3        29.80F
BROKEN BOW     MOCLDY    58  55  90 S16G26    29.74R
IMPERIAL       PTCLDY    52  49  89 SE7       29.77R
NORTH PLATTE   CLOUDY    56  54  93 SE20G30   29.72R
MCCOOK         CLEAR     52  49  89 SE9       29.74F

...EASTERN NEBRASKA...

CITY           SKY/WX    TMP DP  RH WIND       PRES   REMARKS
NORFOLK        CLOUDY    60  55  83 S8        29.78F
SO SIOUX CITY  CLOUDY    61  56  83 CALM      29.80S
TEKAMAH        CLOUDY    63  57  81 S8        29.80R
COLUMBUS       CLOUDY    61  54  77 SE3       29.78F
ALBION         CLOUDY    60  56  88 CALM      29.76F
OMAHA EPPLEY   CLOUDY    64  59  83 S14       29.80S
OFFUTT AFB     CLOUDY    62  62  97 S13G21    29.78F
MILLARD        CLOUDY    63  59  86 S8        29.81S
LINCOLN        LGT RAIN  62  59  90 SE13      29.79F
NEBRASKA CITY  LGT RAIN  61  61 100 S14G20    29.84R
BEATRICE       LGT RAIN  61  60  96 S12G18    29.82F
FALLS CITY     RAIN      62  62 100 S9        29.83F

...NORTHERN KANSAS...

CITY           SKY/WX    TMP DP  RH WIND       PRES   REMARKS
GOODLAND       CLOUDY    50  48  93 SE8       29.76F
HILL CITY      CLOUDY    58  56  93 SE12      29.72F
NORTON         MOSUNNY   55  52  88 SE7       29.75R
PHILLIPSBURG   MOCLDY    57  57 100 E13       29.71F
SMITH CENTER   PTCLDY    55  55 100 E3        29.74F
BELOIT         CLEAR     59  57  94 SE5       29.72F
HAYS           CLOUDY    28 N/A N/A E16       29.70F WCI  17
RUSSELL        CLOUDY    57  56  96 E17       29.70F
CONCORDIA      CLOUDY    59  56  89 SE13G21   29.70F
SALINA         MOCLDY    61  58  90 E10G23    29.72F
TOPEKA         RAIN      61  60  97 W8        29.82F FOG



USA.gov is the U.S. government's official web portal to all federal, state and local government web resources and services.